Tracking 28794 objects as of 19-Apr-2024
HD Live streaming from Space Station
objects crossing your sky now

STARLINK-6283

Track STARLINK-6283 now!
10-day predictions
STARLINK-6283 is classified as:


NORAD ID: 56406
Int'l Code: 2023-061AJ
Perigee: 565.4 km
Apogee: 567.1 km
Inclination: 43.0 °
Period: 95.8 minutes
Semi major axis: 6937 km
RCS: Unknown
Launch date: May 4, 2023
Source: United States (US)
Launch site: AIR FORCE EASTERN TEST RANGE (AFETR)
Your satellite tracking list
Your tracking list is empty




NASA's NSSDC Master Catalog

Two Line Element Set (TLE):
1 56406U 23061AJ  24109.97408255 -.00001675  00000-0 -10897-3 0  9998
2 56406  43.0046 332.1787 0001232 272.4434  87.6267 15.02536203 53152
Source of the keplerian elements: AFSPC